Weather reports worldwide

Advertisment
Angermünde, Germany (10291): temperature & dewpoint: 11.10.2018 08:00:00 - 17.10.2018 08:00:00 (CEST)Angermünde, Germany (10291): temperature 5cm & temperature -5cm: 11.10.2018 08:00:00 - 17.10.2018 08:00:00 (CEST)Angermünde, Germany (10291): temperature -20cm & temperature -100cm: 11.10.2018 08:00:00 - 17.10.2018 08:00:00 (CEST)Angermünde, Germany (10291): wind speed & gusts: 11.10.2018 08:00:00 - 17.10.2018 08:00:00 (CEST)Angermünde, Germany (10291): wind direction: 11.10.2018 08:00:00 - 17.10.2018 08:00:00 (CEST)Angermünde, Germany (10291): reduced air pressure: 11.10.2018 08:00:00 - 17.10.2018 08:00:00 (CEST)Angermünde, Germany (10291): visibility: 11.10.2018 08:00:00 - 17.10.2018 08:00:00 (CEST)Angermünde, Germany (10291): sunshine duration: 11.10.2018 08:00:00 - 17.10.2018 08:00:00 (CEST)Angermünde, Germany (10291): precipitation: 11.10.2018 08:00:00 - 17.10.2018 08:00:00 (CEST)
Date & Time tt [°C] td [°C] tt 5cm [°C] tt -5cm [°C] tt -20cm [°C] tt -100cm [°C] ff [km/h] ff [kn] fx [km/h] fx [kn] dd ppp [hPa] vv [km] sd [min] rr [mm]
17.10.2018 08:00:00 5,6 5,4 3,1 8,2 11,3 14,0 2 1 7 4 SE 1020,1 3,3 0 0,0
17.10.2018 07:00:00 4,6 4,5 2,7 8,4 11,5 14,0 2 1 4 2 S 1019,8 3,3 0 0,0
17.10.2018 06:00:00 5,7 5,6 3,6 8,7 11,7 14,0 4 2 7 4 NW 1019,7 3,6 0 0,0
17.10.2018 05:00:00 6,1 5,9 4,5 8,9 11,9 14,0 4 2 6 4 SW 1019,3 1,9 0 0,0
17.10.2018 04:00:00 6,5 6,4 3,5 9,2 12,1 14,0 2 1 3 2 W 1019,4 1,9 0 0,0
17.10.2018 03:00:00 6,7 6,5 3,8 9,6 12,3 14,0 0 0 4 2 N 1019,6 4,9 0 0,0
17.10.2018 02:00:00 7,2 7,0 4,2 10,0 12,5 14,0 4 2 9 5 W 1019,7 2,9 0 0,0
17.10.2018 01:00:00 7,9 7,7 5,9 10,3 12,8 14,0 8 4 9 5 WNW 1019,7 3,6 0 0,0
17.10.2018 00:00:00 8,2 8,0 5,2 10,7 13,0 14,0 4 2 5 3 NW 1019,7 4,4 0 0,0
16.10.2018 23:00:00 9,8 9,4 6,6 11,2 13,2 14,0 4 2 6 4 NE 1019,9 8 0 0,0
16.10.2018 22:00:00 9,5 8,8 6,1 11,7 13,4 14,0 2 1 4 2 WSW 1019,8 9 0 0,0
16.10.2018 21:00:00 10,7 9,2 8,3 12,3 13,7 14,0 5 3 6 3 W 1019,8 13 0 0,0
16.10.2018 20:00:00 11,5 8,7 8,7 13,0 13,8 14,0 4 2 5 3 W 1019,6 16 0 0,0
16.10.2018 19:00:00 13,4 9,5 9,0 13,9 13,9 14,0 3 2 8 4 SW 1019,4 17 0 0,0
16.10.2018 18:00:00 17,4 8,0 13,7 15,0 13,9 14,0 6 3 10 6 SSE 1019,0 23 25 0,0
16.10.2018 17:00:00 19,1 8,4 19,1 15,8 13,7 14,0 4 2 8 4 ESE 1018,6 27 60 0,0
16.10.2018 16:00:00 19,8 7,5 20,9 16,2 13,4 14,0 5 3 10 5 S 1018,6 25 38 0,0
16.10.2018 15:00:00 19,1 8,0 19,7 16,1 13,0 14,0 6 3 16 9 SE 1018,7 25 12 0,0
16.10.2018 14:00:00 20,3 7,6 24,0 15,8 12,5 14,0 6 3 11 6 E 1018,4 23 59 0,0
16.10.2018 13:00:00 19,2 7,8 22,0 14,5 12,0 14,0 8 5 16 9 SSE 1018,6 22 60 0,0
16.10.2018 12:00:00 17,5 8,1 20,2 12,8 11,7 14,0 5 3 11 6 S 1019,0 22 60 0,0
16.10.2018 11:00:00 14,6 7,5 16,8 11,1 11,5 14,0 7 4 10 6 SSE 1018,9 17 60 0,0
16.10.2018 10:00:00 11,3 7,2 14,4 9,6 11,5 14,0 3 2 6 3 E 1018,9 15 60 0,0
16.10.2018 09:00:00 7,9 5,5 8,7 8,8 11,6 14,0 0 0 8 4 N 1018,7 10 30 0,0
16.10.2018 08:00:00 6,1 4,5 4,1 8,7 11,8 14,0 6 3 8 5 SE 1018,5 10 0 0,0
16.10.2018 07:00:00 6,2 4,9 3,5 8,9 12,0 14,0 2 1 5 3 SE 1018,0 12 0 0,0
16.10.2018 06:00:00 6,9 4,9 3,5 9,2 12,2 14,0 3 2 9 5 SE 1017,7 13 0 0,0
16.10.2018 05:00:00 7,9 5,2 5,1 9,5 12,4 14,0 7 4 9 5 SSE 1017,5 16 0 0,0
16.10.2018 04:00:00 8,5 4,9 5,0 9,8 12,6 14,0 5 3 11 6 SSW 1017,5 17 0 0,0
16.10.2018 03:00:00 9,2 5,3 5,4 10,1 12,8 14,0 7 4 11 6 SSE 1017,2 17 0 0,0
16.10.2018 02:00:00 9,6 6,4 6,1 10,4 13,0 14,0 8 4 9 5 SSE 1017,3 16 0 0,0
16.10.2018 01:00:00 8,9 5,3 6,1 10,8 13,2 14,0 7 4 11 6 SSW 1017,1 16 0 0,0
16.10.2018 00:00:00 9,1 5,7 6,3 11,2 13,5 14,0 6 3 12 7 SSE 1017,3 17 0 0,0
15.10.2018 23:00:00 10,8 6,4 7,1 11,7 13,7 14,0 10 5 12 6 SE 1017,1 18 0 0,0
15.10.2018 22:00:00 11,4 6,5 7,8 12,2 13,9 14,0 5 3 9 5 SE 1017,0 17 0 0,0
15.10.2018 21:00:00 11,2 6,8 8,5 12,8 14,2 14,0 6 3 15 8 W 1016,9 21 0 0,0
15.10.2018 20:00:00 14,3 6,0 11,1 13,5 14,4 14,0 10 5 13 7 SE 1016,8 21 0 0,0
15.10.2018 19:00:00 15,8 6,0 11,4 14,5 14,4 13,9 6 3 13 7 SE 1016,6 22 0 0,0
15.10.2018 18:00:00 18,8 5,7 15,6 15,6 14,4 14,0 8 4 15 8 S 1016,1 29 34 0,0
15.10.2018 17:00:00 20,6 5,7 20,8 16,4 14,2 14,0 11 6 24 13 S 1015,9 31 60 0,0
15.10.2018 16:00:00 20,9 5,4 22,3 16,7 13,9 13,9 14 8 26 14 S 1015,9 23 54 0,0
15.10.2018 15:00:00 20,5 5,4 22,8 16,7 13,5 13,9 16 9 26 14 S 1016,1 18 60 0,0
15.10.2018 14:00:00 19,6 5,2 22,3 15,9 13,1 13,9 16 8 32 17 SSE 1016,3 20 57 0,0
15.10.2018 13:00:00 17,6 5,3 19,7 14,7 12,8 13,9 15 8 22 12 SSE 1016,5 24 49 0,0
15.10.2018 12:00:00 16,5 5,6 17,1 13,5 12,5 13,9 10 5 25 14 SSE 1016,4 28 44 0,0
15.10.2018 11:00:00 16,1 5,2 18,1 12,3 12,4 13,9 13 7 24 13 S 1016,5 12 59 0,0
15.10.2018 10:00:00 14,6 5,2 15,8 11,0 12,4 13,9 11 6 19 11 SSE 1016,3 28 60 0,0
15.10.2018 09:00:00 12,1 5,5 12,2 10,1 12,5 13,9 9 5 16 9 SSE 1016,2 22 35 0,0
15.10.2018 08:00:00 10,6 5,2 8,2 10,1 12,7 13,9 10 5 16 8 SSE 1016,0 27 0 0,0
15.10.2018 07:00:00 11,0 5,5 8,3 10,5 12,8 13,9 9 5 21 11 S 1015,9 31 0 0,0
15.10.2018 06:00:00 11,8 5,6 9,4 10,7 13,0 13,9 12 6 20 11 SSE 1015,8 30 0 0,0
15.10.2018 05:00:00 11,5 6,1 6,5 11,3 13,2 13,9 5 3 24 13 S 1015,9 30 0 0,0
15.10.2018 04:00:00 13,3 6,2 11,5 11,6 13,3 13,9 16 9 23 13 SSE 1015,7 30 0 0,0
15.10.2018 03:00:00 13,7 6,5 11,7 11,8 13,4 13,9 15 8 23 13 SSE 1015,5 31 0 0,0
15.10.2018 02:00:00 14,4 6,6 12,2 12,0 13,6 13,9 15 8 21 12 SSE 1015,4 33 0 0,0
15.10.2018 01:00:00 14,8 6,9 12,6 12,3 13,7 13,9 16 8 21 11 SSE 1015,4 31 0 0,0
15.10.2018 00:00:00 15,9 7,1 13,3 12,5 13,9 13,9 13 7 23 12 SSE 1015,3 29 0 0,0
14.10.2018 23:00:00 16,1 7,7 12,9 12,7 14,1 13,9 10 6 23 12 SSE 1015,3 29 0 0,0
14.10.2018 22:00:00 16,1 8,0 12,3 12,9 14,4 13,9 11 6 18 10 SSE 1015,3 28 0 0,0
14.10.2018 21:00:00 13,4 8,4 8,2 13,5 14,6 13,9 5 3 8 5 SSE 1015,3 25 0 0,0
14.10.2018 20:00:00 14,9 8,2 10,1 14,4 14,8 13,8 4 2 8 5 SSE 1015,3 19 0 0,0
14.10.2018 19:00:00 17,3 8,2 11,7 15,5 14,8 13,8 7 4 15 8 S 1015,3 24 0 0,0
14.10.2018 18:00:00 21,1 7,5 18,7 16,6 14,7 13,8 11 6 31 17 SSE 1015,0 34 44 0,0
14.10.2018 17:00:00 22,6 7,4 22,4 17,2 14,5 13,8 21 11 41 22 SSE 1014,9 31 60 0,0
14.10.2018 16:00:00 22,7 7,7 23,7 17,5 14,2 13,8 22 12 36 20 SSE 1015,2 18 60 0,0
14.10.2018 15:00:00 22,8 7,7 24,4 17,3 13,8 13,8 19 11 40 22 SSE 1015,4 19 60 0,0
14.10.2018 14:00:00 21,7 7,8 23,8 16,6 13,3 13,8 2 1 41 22 S 1016,1 17 60 0,0
14.10.2018 13:00:00 19,8 8,0 22,0 15,5 12,9 13,8 25 13 38 20 SSE 1016,8 17 60 0,0
14.10.2018 12:00:00 18,7 8,2 20,8 14,1 12,6 13,8 19 11 32 18 SSE 1017,2 14 60 0,0
14.10.2018 11:00:00 16,9 8,4 18,4 12,6 12,5 13,8 21 12 29 16 SE 1017,9 10 60 0,0
14.10.2018 10:00:00 14,9 8,3 16,0 11,3 12,5 13,8 11 6 22 12 SE 1018,1 20 60 0,0
14.10.2018 09:00:00 11,8 7,9 11,9 10,6 12,6 13,8 11 6 19 10 SE 1018,3 13 50 0,0
14.10.2018 08:00:00 10,5 7,7 9,1 10,5 12,7 13,8 15 8 22 12 SE 1018,4 11 0 0,0
14.10.2018 07:00:00 10,8 7,8 9,1 10,7 12,9 13,8 14 7 22 12 SSE 1018,6 12 0 0,0
14.10.2018 06:00:00 10,6 8,0 8,9 10,9 13,0 13,8 12 7 19 10 SSE 1019,1 10 0 0,0
14.10.2018 05:00:00 11,2 8,4 9,2 11,2 13,2 13,8 13 7 23 12 SE 1019,6 11 0 0,0
14.10.2018 04:00:00 11,8 8,6 9,6 11,5 13,4 13,8 13 7 22 12 SE 1020,1 12 0 0,0
14.10.2018 03:00:00 12,6 8,9 11,0 11,7 13,5 13,7 17 9 22 12 SE 1020,7 12 0 0,0
14.10.2018 02:00:00 13,3 9,3 11,2 11,8 13,8 13,7 13 7 20 11 SE 1021,1 13 0 0,0
14.10.2018 01:00:00 13,2 9,7 8,3 12,3 14,0 13,7 4 2 13 7 SSE 1021,6 14 0 0,0
14.10.2018 00:00:00 13,9 9,9 10,1 12,9 14,2 13,7 8 4 19 10 SSE 1021,7 13 0 0,0
13.10.2018 23:00:00 14,6 9,9 11,7 13,3 14,4 13,7 12 7 16 9 SE 1022,0 12 0 0,0
13.10.2018 22:00:00 15,7 10,1 13,2 14,0 14,6 13,7 13 7 18 10 SE 1022,1 14 0 0,0
13.10.2018 21:00:00 16,4 9,9 14,2 14,5 14,8 13,7 14 8 26 14 SE 1022,3 16 0 0,0
13.10.2018 20:00:00 18,2 9,6 16,3 15,0 14,9 13,7 16 9 24 13 SE 1022,5 20 0 0,0
13.10.2018 19:00:00 17,4 10,3 12,4 15,9 15,0 13,7 8 5 12 6 ESE 1022,7 20 0 0,0
13.10.2018 18:00:00 21,2 9,7 19,0 17,2 14,9 13,7 9 5 19 11 SE 1022,7 25 48 0,0
13.10.2018 17:00:00 23,3 10,8 23,4 18,0 14,7 13,7 13 7 22 12 SE 1022,9 22 60 0,0
13.10.2018 16:00:00 23,8 11,0 25,4 18,4 14,3 13,7 14 8 25 14 SSE 1023,2 28 60 0,0
13.10.2018 15:00:00 23,3 10,6 25,7 18,1 13,8 13,7 14 8 23 12 SSE 1023,6 20 60 0,0
13.10.2018 14:00:00 22,4 10,8 25,1 17,3 13,2 13,7 16 8 23 12 SSE 1024,2 18 60 0,0
13.10.2018 13:00:00 20,9 10,8 24,0 16,1 12,7 13,7 13 7 18 10 SE 1024,8 13 60 0,0
13.10.2018 12:00:00 19,6 11,1 22,4 14,4 12,4 13,7 8 5 13 7 SE 1025,1 13 60 0,0
13.10.2018 11:00:00 16,8 10,5 19,1 12,8 12,1 13,7 9 5 14 7 SE 1025,3 8 60 0,0
13.10.2018 10:00:00 14,4 10,2 16,2 11,3 12,1 13,7 6 4 11 6 SSE 1025,7 8 60 0,0
13.10.2018 09:00:00 12,2 9,4 12,7 10,2 12,2 13,7 5 3 10 5 SSE 1025,6 8 53 0,0
13.10.2018 08:00:00 10,1 9,0 7,0 10,1 12,3 13,7 4 2 10 5 S 1025,4 6 0 0,0
13.10.2018 07:00:00 10,5 9,1 7,5 10,4 12,5 13,6 6 3 13 7 S 1025,2 7 0 0,0
13.10.2018 06:00:00 11,1 9,2 8,6 10,6 12,7 13,6 8 4 11 6 SSE 1025,1 8 0 0,0
13.10.2018 05:00:00 11,2 9,5 7,4 10,9 12,8 13,6 3 2 12 6 SSE 1025,0 8 0 0,0
13.10.2018 04:00:00 12,0 9,5 9,3 11,2 13,0 13,6 7 4 15 8 SSE 1024,9 9 0 0,0
13.10.2018 03:00:00 12,7 9,7 10,4 11,4 13,2 13,6 11 6 16 9 SSE 1024,7 10 0 0,0
13.10.2018 02:00:00 12,6 10,1 8,4 11,7 13,4 13,6 6 3 13 7 S 1024,9 10 0 0,0
13.10.2018 01:00:00 13,6 10,2 9,4 12,0 13,6 13,6 8 4 13 7 S 1024,7 12 0 0,0
13.10.2018 00:00:00 14,2 10,2 11,0 12,2 13,8 13,6 9 5 12 7 SSE 1024,6 13 0 0,0
12.10.2018 23:00:00 13,7 10,3 9,3 12,7 14,0 13,6 7 4 14 8 SSE 1024,7 12 0 0,0
12.10.2018 22:00:00 12,8 10,5 9,0 13,3 14,3 13,6 6 3 9 5 SE 1024,9 11 0 0,0
12.10.2018 21:00:00 13,6 11,1 9,6 14,0 14,5 13,6 0 0 3 2 N 1024,7 14 0 0,0
12.10.2018 20:00:00 16,4 10,8 11,7 14,9 14,6 13,6 3 1 16 8 SW 1024,3 17 0 0,0
12.10.2018 19:00:00 19,5 10,5 16,5 15,9 14,6 13,6 11 6 15 8 SSE 1023,6 25 0 0,0
12.10.2018 18:00:00 21,5 10,4 19,6 17,0 14,5 13,6 11 6 18 10 SE 1023,1 26 50 0,0
12.10.2018 17:00:00 23,2 10,1 23,6 17,7 14,3 13,6 11 6 20 11 S 1023,0 27 60 0,0
12.10.2018 16:00:00 23,3 10,4 25,0 18,0 13,9 13,6 12 6 22 12 S 1022,9 34 60 0,0
12.10.2018 15:00:00 22,6 10,6 25,0 17,7 13,4 13,6 13 7 21 12 S 1022,9 29 60 0,0
12.10.2018 14:00:00 21,6 10,9 24,6 16,9 12,8 13,6 12 6 19 11 S 1022,9 20 60 0,0
12.10.2018 13:00:00 19,9 10,5 23,0 15,6 12,4 13,6 13 7 19 10 SSE 1022,9 23 60 0,0
12.10.2018 12:00:00 18,3 10,5 21,1 14,0 12,0 13,6 12 6 24 13 S 1023,2 18 60 0,0
12.10.2018 11:00:00 17,1 10,2 19,2 12,4 11,8 13,6 13 7 27 15 SSE 1022,6 18 60 0,0
12.10.2018 10:00:00 15,2 9,9 16,3 11,0 11,7 13,6 12 7 24 13 S 1022,4 17 60 0,0
12.10.2018 09:00:00 13,0 9,2 12,9 10,0 11,8 13,6 14 8 23 12 SSE 1021,7 17 55 0,0
12.10.2018 08:00:00 11,5 8,6 9,7 9,7 12,0 13,6 12 6 17 9 SSE 1021,3 17 0 0,0
12.10.2018 07:00:00 11,0 8,5 8,4 10,0 12,1 13,6 9 5 18 10 SSE 1020,8 14 0 0,0
12.10.2018 06:00:00 11,5 8,8 8,2 10,1 12,3 13,6 11 6 14 7 SSE 1020,6 15 0 0,0
12.10.2018 05:00:00 11,1 9,1 5,9 10,6 12,5 13,6 4 2 8 4 S 1020,4 14 0 0,0
12.10.2018 04:00:00 12,6 9,4 7,7 11,2 12,7 13,6 6 3 19 11 SSE 1020,1 15 0 0,0
12.10.2018 03:00:00 14,3 9,7 12,1 11,6 12,8 13,6 12 6 20 11 SSE 1019,8 19 0 0,0
12.10.2018 02:00:00 14,5 10,0 12,6 11,8 12,9 13,6 14 8 22 12 SE 1019,7 17 0 0,0
12.10.2018 01:00:00 15,5 10,1 13,5 12,0 13,1 13,6 15 8 23 12 SE 1019,6 18 0 0,0
12.10.2018 00:00:00 15,5 10,2 12,9 12,1 13,2 13,6 14 7 24 13 SE 1019,5 19 0 0,0
11.10.2018 23:00:00 16,5 10,2 12,3 12,5 13,4 13,6 8 4 18 10 ESE 1019,4 19 0 0,0
11.10.2018 22:00:00 17,7 10,3 15,1 12,8 13,6 13,6 13 7 19 10 SE 1018,9 21 0 0,0
11.10.2018 21:00:00 17,0 10,3 13,0 13,4 13,8 13,6 10 5 19 10 ESE 1018,9 19 0 0,0
11.10.2018 20:00:00 16,9 10,4 12,9 14,1 14,0 13,6 11 6 18 10 ESE 1018,7 20 0 0,0
11.10.2018 19:00:00 18,0 10,3 14,1 15,2 14,0 13,6 10 5 18 10 E 1018,4 22 0 0,0
11.10.2018 18:00:00 21,1 10,2 18,8 16,5 13,9 13,6 9 5 29 16 SE 1018,1 25 51 0,0
11.10.2018 17:00:00 22,9 9,6 22,8 17,1 13,6 13,6 17 9 36 20 SE 1018,0 25 60 0,0
11.10.2018 16:00:00 23,3 9,8 24,5 17,4 13,2 13,6 18 10 32 17 SE 1018,2 28 60 0,0
11.10.2018 15:00:00 22,3 10,3 24,1 17,1 12,7 13,6 22 12 35 19 ESE 1018,7 23 60 0,0
11.10.2018 14:00:00 21,8 9,7 24,1 16,2 12,2 13,6 19 11 29 16 ESE 1019,1 18 60 0,0
11.10.2018 13:00:00 20,8 10,9 23,3 15,0 11,7 13,6 18 10 31 17 ESE 1019,8 14 60 0,0
11.10.2018 12:00:00 19,0 10,5 21,2 13,4 11,3 13,6 18 10 28 15 SSE 1020,1 14 60 0,0
11.10.2018 11:00:00 16,9 10,8 18,6 11,9 11,0 13,6 13 7 23 12 SSE 1020,5 13 60 0,0
11.10.2018 10:00:00 14,9 10,8 15,8 10,5 10,9 13,6 12 7 20 11 SE 1020,4 9 60 0,0
11.10.2018 09:00:00 12,7 10,4 11,6 9,3 11,0 13,6 11 6 18 10 SE 1020,4 7 55 0,0
11.10.2018 08:00:00 10,9 9,7 8,7 8,9 11,1 13,6 11 6 14 8 SE 1020,3 7 0 0,0

tt = temperature
td = dewpoint
tt 5cm = temperature 5cm
tt -5cm = temperature -5cm
tt -20cm = temperature -20cm
tt -100cm = temperature -100cm
ff = wind speed
fx = gusts
dd = wind direction
ppp = reduced air pressure
vv = visibility
sd = sunshine duration
rr = precipitation

Next stations